Change the Weather History Date:

Saturday, July 20, 2013

  Actual Average Record
Temperature  
Mean Temperature 78 °F -  
Max Temperature 84 °F 88 °F 94 °F (1974)
Min Temperature 73 °F 67 °F 63 °F (1977)
Cooling Degree Days 14    
Growing Degree Days 28 (Base 50)    
Moisture  
Dew Point 68 °F    
Average Humidity 69    
Maximum Humidity 84    
Minimum Humidity 56    
Precipitation  
Precipitation 0.00 in - - ()
Sea Level Pressure  
Sea Level Pressure 30.04 in    
Wind  
Wind Speed 5 mph (SW)    
Max Wind Speed 12 mph    
Max Gust Speed -    
Visibility 10 miles    
Events      
Averages and records for this station are not official NWS values.
T = Trace of Precipitation, MM = Missing Value Source: NWS Daily Summary

Daily Weather History Graph

Daily Weather History Graph

Search for Another Location

Airport or City:

Trip Planner

Search our weather history database for the weather conditions in past years. The results will help you decide how hot, cold, wet, or windy it might be!

Date:

Astronomy

Jul. 20, 2013 Rise Set
Actual Time 6:06 AM HST 7:24 PM HST
Civil Twilight 5:42 AM HST 7:48 PM HST
Nautical Twilight 5:13 AM HST 8:17 PM HST
Astronomical Twilight 4:43 AM HST 8:47 PM HST
Moon 5:40 PM HST (7/20) 3:58 AM HST (7/20)
Length of Visible Light 14h 06m
Length of Day
13h 17m
Waxing Gibbous, 95% of the Moon is Illuminated
Jul 20
Waxing Gibbous
Jul 22
Full
Jul 29
Last Quarter
Aug 6
New
Aug 14
First Quarter

Hourly Weather History & Observations

Time (HST) Temp. Heat Index Dew Point Humidity Pressure Visibility Wind Dir Wind Speed Gust Speed Precip Events Conditions
12:56 AM 73.9 °F - 66.9 °F 79% 30.07 in 10.0 mi East 3.5 mph - N/A   Clear
1:56 AM 73.0 °F - 68.0 °F 84% 30.06 in 10.0 mi East 3.5 mph - N/A   Clear
2:56 AM 73.0 °F - 66.0 °F 79% 30.05 in 10.0 mi ENE 3.5 mph - N/A   Partly Cloudy
3:56 AM 73.0 °F - 66.0 °F 79% 30.04 in 10.0 mi ENE 4.6 mph - N/A   Mostly Cloudy
4:56 AM 73.0 °F - 64.9 °F 76% 30.04 in 10.0 mi Calm Calm - N/A   Overcast
5:56 AM 73.9 °F - 66.0 °F 76% 30.04 in 10.0 mi ENE 3.5 mph - N/A   Overcast
6:56 AM 73.9 °F - 68.0 °F 82% 30.05 in 10.0 mi Calm Calm - N/A   Clear
7:56 AM 79.0 °F - 69.1 °F 72% 30.07 in 10.0 mi Calm Calm - 0.00 in   Clear
8:56 AM 80.1 °F 83.2 °F 70.0 °F 71% 30.08 in 10.0 mi West 3.5 mph - N/A   Clear
9:56 AM 81.0 °F 84.4 °F 70.0 °F 69% 30.08 in 10.0 mi West 5.8 mph - N/A   Clear
10:56 AM 82.0 °F 85.5 °F 69.1 °F 65% 30.08 in 10.0 mi West 5.8 mph - N/A   Clear
11:56 AM 82.0 °F 85.5 °F 69.1 °F 65% 30.08 in 10.0 mi WSW 8.1 mph - N/A   Clear
12:56 PM 84.0 °F 87.8 °F 69.1 °F 61% 30.06 in 10.0 mi West 9.2 mph - N/A   Clear
1:52 PM 82.4 °F 86.3 °F 69.8 °F 66% 30.04 in 10.0 mi WSW 9.2 mph - N/A   Mostly Cloudy
1:56 PM 82.9 °F 86.5 °F 69.1 °F 63% 30.04 in 10.0 mi West 10.4 mph - N/A   Mostly Cloudy
2:31 PM 82.4 °F 86.3 °F 69.8 °F 66% 30.03 in 10.0 mi West 11.5 mph - N/A   Scattered Clouds
2:56 PM 84.0 °F 87.0 °F 68.0 °F 58% 30.03 in 10.0 mi NW 6.9 mph - N/A   Scattered Clouds
3:05 PM 84.2 °F 87.3 °F 68.0 °F 58% 30.02 in 10.0 mi WNW 4.6 mph - N/A   Mostly Cloudy
3:13 PM 82.4 °F 85.4 °F 68.0 °F 62% 30.02 in 10.0 mi West 5.8 mph - N/A   Partly Cloudy
3:56 PM 84.0 °F 86.5 °F 66.9 °F 56% 30.02 in 10.0 mi SW 9.2 mph - N/A   Clear
4:56 PM 82.9 °F 85.0 °F 66.0 °F 56% 30.00 in 10.0 mi South 10.4 mph - N/A   Partly Cloudy
5:56 PM 82.0 °F 84.5 °F 66.9 °F 60% 30.01 in 10.0 mi SSE 8.1 mph - N/A   Clear
6:56 PM 79.0 °F - 69.1 °F 72% 30.02 in 10.0 mi South 6.9 mph - N/A   Clear
7:56 PM 79.0 °F - 69.1 °F 72% 30.03 in 10.0 mi SSW 4.6 mph - N/A   Clear
8:56 PM 75.9 °F - 68.0 °F 76% 30.04 in 10.0 mi Calm Calm - N/A   Clear
9:56 PM 75.9 °F - 68.0 °F 76% 30.05 in 10.0 mi ENE 4.6 mph - N/A   Clear
10:56 PM 75.0 °F - 64.0 °F 69% 30.05 in 10.0 mi East 5.8 mph - N/A   Clear
11:56 PM 75.0 °F - 66.0 °F 73% 30.05 in 10.0 mi Calm Calm - N/A   Scattered Clouds